Vorticity
5 5 5 5 5 6 6 6 6 6 7 7 7 7 7 7 6 6 6 7 7 5 4 4 4 5 4 4 3 7 10 11 11 12 12 11 6 2 7 9 10 13 9 6 5 1 3 4 5 8 8 6 4 4 5 6 5 4 1 3 2 7 13 3 5 4 -3 6 4 4 8 5 6 7 9 8 9 10 6 7 7 6 6 4 5 7 7 5
6 6 6 6 6 6 6 6 6 7 7 7 7 7 7 7 7 6 6 6 7 6 5 4 4 4 4 5 4 3 6 10 11 9 12 17 10 1 5 6 6 11 9 7 5 3 4 3 2 4 5 5 5 5 6 7 4 2 0 4 3 4 8 4 6 2 -1 13 6 3 9 4 3 6 8 7 7 8 7 8 7 6 4 3 6 8 8 8
6 6 6 6 6 6 6 7 7 7 8 8 8 7 7 7 7 7 6 5 6 6 6 5 4 5 5 6 6 3 3 6 10 11 10 13 13 7 4 5 6 7 8 7 6 7 6 3 2 2 3 3 4 5 6 5 4 3 -1 2 5 2 -1 -0 7 3 -4 7 13 7 5 6 5 4 6 6 6 7 8 9 8 6 5 6 8 8 7 8
6 6 6 6 6 6 6 6 6 6 7 8 8 8 8 8 8 8 7 6 5 6 6 6 5 6 6 5 7 7 4 3 6 10 9 9 13 13 7 4 5 6 6 6 7 8 7 5 5 3 3 4 3 4 5 3 3 3 1 1 4 3 3 7 6 0 -6 -3 7 4 0 7 7 6 7 5 7 10 6 5 9 8 8 9 8 8 8 8
6 6 6 6 6 6 6 6 5 5 5 6 7 8 9 9 9 8 9 8 6 6 6 6 6 6 7 5 6 7 7 5 3 5 9 10 10 13 14 8 4 4 4 4 6 9 10 9 8 5 5 6 2 4 7 4 1 0 3 1 2 3 -5 4 13 3 -2 -2 4 6 4 7 7 7 8 5 9 10 6 5 8 7 7 10 8 7 7 5
6 6 6 6 6 5 6 6 5 5 5 5 5 6 7 8 9 9 9 9 8 7 6 6 6 6 7 6 5 6 8 7 5 4 6 9 10 11 14 14 8 4 3 4 4 7 10 11 10 9 9 8 4 6 8 5 2 -0 3 -0 0 6 -8 -4 11 3 1 5 2 3 3 4 6 7 6 7 8 4 5 7 8 7 8 9 8 8 8 6
7 7 7 6 6 5 5 5 5 5 4 5 5 5 6 6 7 9 10 10 10 8 7 6 5 6 6 7 6 5 6 8 9 8 4 7 11 11 10 14 14 7 4 3 3 4 7 10 12 11 10 10 8 9 9 5 5 3 3 2 -1 5 2 0 2 -6 1 8 1 1 1 4 7 5 7 11 5 0 6 7 5 5 5 6 9 10 9 9
6 6 7 7 7 6 6 5 5 4 4 4 4 4 5 5 5 6 8 9 10 10 9 8 6 6 5 7 6 5 6 7 9 9 5 5 7 10 10 11 15 13 7 2 1 3 5 9 11 11 9 9 9 8 8 4 5 7 4 3 1 2 4 6 3 -3 2 4 3 6 4 7 7 3 7 8 2 5 11 8 4 3 2 5 8 10 9 8
4 4 5 6 7 7 7 7 6 5 5 4 3 4 4 4 5 5 5 6 8 10 11 10 9 7 5 6 5 5 7 6 6 9 8 6 4 7 11 10 13 16 13 6 2 1 3 7 9 10 9 7 8 6 7 5 4 9 7 4 4 1 0 5 9 8 7 4 6 8 5 7 4 3 9 6 5 10 9 8 6 4 5 7 7 8 9 8
4 4 4 4 4 5 6 7 7 7 6 5 4 3 3 3 4 4 5 5 6 7 9 11 11 10 7 6 5 5 7 3 3 8 8 7 5 4 7 10 11 13 16 13 7 3 1 4 6 8 8 7 7 6 6 6 6 6 6 7 8 3 0 1 4 5 6 7 9 8 6 7 5 7 9 5 6 8 8 10 6 6 10 7 5 7 10 10
7 6 5 5 4 4 4 4 6 7 8 8 6 4 3 3 3 3 4 4 5 5 6 8 10 12 10 8 7 6 7 4 2 7 8 7 7 5 5 8 10 10 15 16 12 8 2 3 6 6 7 8 7 7 5 6 8 4 2 7 11 8 4 1 1 4 8 10 9 7 6 5 5 7 8 7 7 5 8 12 4 5 11 7 8 9 8 11
7 7 7 7 7 6 5 4 4 4 5 7 8 8 6 4 3 3 3 3 3 4 5 6 7 9 12 12 9 7 6 4 3 6 8 8 7 6 6 6 8 8 10 15 15 12 6 3 4 5 7 7 6 7 6 6 8 6 2 4 8 10 12 8 2 4 6 7 9 7 4 5 7 6 7 7 6 4 7 13 8 3 3 2 7 7 6 11
9 8 9 8 8 8 7 7 6 5 4 3 5 6 7 8 6 4 3 3 2 3 3 4 6 6 10 14 11 7 7 5 2 3 6 8 7 7 6 4 6 8 8 12 14 14 12 6 3 4 6 5 6 6 4 6 7 6 5 6 5 5 12 15 8 7 6 6 12 9 2 6 6 4 6 5 3 4 6 12 10 1 -1 3 7 6 5 9
11 11 11 10 10 10 9 9 8 8 7 6 5 4 5 6 7 7 5 4 2 2 3 2 4 5 6 10 10 9 10 8 4 4 5 6 7 7 6 5 5 7 8 8 10 13 14 12 7 4 4 4 6 6 4 8 7 6 6 7 7 2 8 16 10 6 6 7 10 7 4 6 5 8 9 1 -1 4 10 14 9 1 4 8 9 6 4 8
12 12 12 12 12 12 12 11 10 10 9 9 8 6 5 4 5 7 7 7 5 2 2 2 2 3 4 6 7 10 13 11 7 5 5 4 5 6 5 5 5 5 6 6 7 10 12 14 13 8 5 4 5 5 5 8 8 7 6 6 8 6 5 10 10 7 6 10 9 3 5 5 5 13 9 1 6 9 10 12 7 3 5 6 6 6 4 9
10 10 11 11 11 12 13 12 12 12 11 11 10 9 8 7 5 4 5 7 8 6 3 2 2 1 3 4 5 8 10 13 11 6 5 5 5 5 5 5 5 5 5 7 6 7 9 11 14 14 9 5 4 4 4 7 8 6 7 9 9 7 5 9 16 14 6 6 8 5 5 4 5 12 8 1 6 10 8 7 5 3 3 3 3 4 7 10
10 9 10 10 10 11 12 13 13 12 13 13 12 11 10 10 9 6 5 4 5 8 7 5 3 1 2 4 4 2 4 9 12 11 10 8 6 5 5 5 6 6 5 6 6 6 7 8 12 15 15 11 5 4 4 7 10 5 6 11 10 8 8 9 13 16 16 9 6 5 3 3 3 10 11 -0 1 12 9 5 5 2 1 5 5 4 8 8
8 8 8 8 8 9 9 11 12 12 13 13 14 14 12 12 12 9 7 7 5 4 6 7 6 5 2 3 4 2 3 5 7 12 12 10 8 6 5 4 4 7 7 5 6 6 6 6 9 10 14 17 11 7 4 3 8 7 4 7 10 9 7 10 8 11 21 14 5 6 6 4 -2 3 9 -2 2 13 5 4 6 2 4 6 6 7 6 5
4 4 5 5 4 4 5 5 7 8 10 11 13 14 13 13 14 13 8 9 10 5 5 6 6 8 5 4 5 3 3 4 4 8 11 12 11 8 6 4 3 5 7 7 6 6 7 6 6 7 11 17 18 12 5 1 5 9 6 3 8 8 6 12 8 3 14 17 14 11 7 8 -0 -2 4 0 6 9 1 5 3 1 8 6 6 10 7 4
3 3 3 2 3 3 3 2 2 3 4 5 7 10 13 12 14 17 11 9 13 10 8 6 4 6 7 6 3 2 2 3 4 4 6 9 9 9 8 6 4 3 5 8 7 6 7 6 6 7 8 13 20 18 11 6 5 9 6 3 8 9 8 10 4 2 11 13 16 11 6 12 6 -4 -3 4 11 6 2 7 1 2 10 6 6 7 5 7
4 4 4 4 4 3 4 4 3 4 3 3 4 4 6 7 11 17 14 10 12 12 12 11 7 2 5 9 6 6 5 2 4 3 5 7 7 10 10 8 7 4 5 7 6 6 6 7 9 9 7 10 16 18 15 10 7 8 5 3 7 9 11 11 2 1 3 1 10 13 6 6 10 10 5 6 9 -0 -0 8 3 2 7 5 2 2 6 9
7 7 7 7 6 6 7 6 5 6 5 5 6 5 4 4 5 11 14 13 13 15 12 12 15 8 4 8 6 6 6 4 5 3 3 5 5 9 11 10 9 6 6 6 5 6 7 11 11 7 7 9 11 14 15 12 8 8 6 3 2 3 9 13 7 4 6 12 18 16 10 6 5 11 11 9 8 -1 -0 7 5 2 5 7 4 5 10 8
12 11 11 11 10 9 8 8 8 7 7 7 7 6 6 6 3 4 10 12 12 17 15 10 15 12 8 11 9 6 7 7 6 3 2 4 4 6 9 11 11 9 7 6 6 6 6 11 12 8 8 8 10 12 12 11 8 6 7 5 1 0 5 10 9 5 1 -0 2 7 15 17 8 5 9 9 9 10 10 10 8 5 5 8 6 6 10 7
10 9 8 7 8 9 5 3 6 7 8 9 9 9 7 7 7 3 4 9 10 14 17 13 12 12 11 15 15 8 7 8 7 3 1 4 6 4 4 8 10 11 8 6 8 7 4 4 6 6 7 7 8 11 10 11 10 7 6 5 5 5 4 6 10 8 3 -3 1 7 4 7 10 6 5 8 12 13 7 5 6 2 2 5 2 5 11 10
10 8 6 3 5 11 8 1 2 6 6 5 6 9 10 9 9 5 3 6 7 7 9 11 13 13 9 11 16 11 6 6 8 7 3 4 6 5 4 4 6 9 8 6 7 8 5 3 3 2 5 7 6 8 9 10 12 10 8 7 7 9 1 2 11 9 7 7 9 9 -1 2 15 12 4 4 10 7 -2 2 10 7 4 1 2 8 7 5
14 14 13 8 3 9 13 11 11 8 6 8 5 4 9 11 11 11 7 4 6 6 3 5 9 10 7 8 16 17 12 7 6 9 7 5 7 8 5 2 4 8 8 9 8 8 6 4 4 1 3 8 7 8 7 8 11 10 12 11 8 11 2 -2 8 5 3 3 -5 -8 -6 -3 6 14 12 3 1 5 5 4 4 10 10 1 5 12 3 1
18 18 19 17 10 9 11 12 15 12 7 9 7 4 7 12 14 16 15 10 10 11 7 5 6 5 8 10 10 15 18 13 7 8 8 8 8 7 4 1 2 5 7 8 7 8 8 5 4 3 3 4 6 8 7 6 8 8 13 13 8 12 8 -0 -2 -5 4 7 -7 -7 3 5 4 4 7 9 6 4 2 -3 0 14 13 2 6 11 8 10
20 20 22 24 22 18 17 16 21 26 23 17 14 11 9 11 13 17 24 19 15 19 15 10 8 3 2 5 6 11 19 18 13 11 11 11 10 7 5 4 4 6 5 5 7 10 12 9 7 7 5 3 5 9 9 7 6 8 11 11 10 10 10 9 -5 -14 4 12 4 7 10 7 10 6 3 12 14 10 7 4 11 9 -7 2 15 4 3 8
19 19 21 24 26 28 30 27 25 27 30 31 28 23 17 15 15 16 23 21 18 30 29 19 20 18 9 4 2 3 10 15 15 14 13 11 10 10 8 7 7 7 3 2 7 9 10 10 10 9 6 5 9 10 9 7 7 9 7 8 13 9 9 13 2 -10 -4 2 2 6 9 2 5 15 13 6 4 12 12 1 8 4 -14 12 30 6 1 6
17 18 18 19 21 25 28 29 28 25 27 33 35 36 30 24 22 18 24 27 21 28 34 22 14 12 11 10 8 5 3 7 12 14 14 11 9 9 9 9 8 8 6 3 4 5 8 10 7 7 7 7 10 10 9 7 6 9 9 8 10 11 12 11 11 4 -12 -15 -13 -10 5 3 -6 4 9 7 9 15 14 -3 5 15 -0 12 23 1 4 11
16 16 14 12 8 12 18 19 23 23 24 26 27 35 33 29 28 18 23 37 29 23 28 21 6 -1 2 4 4 6 6 6 9 9 10 12 10 7 5 5 4 6 6 3 2 4 7 7 4 4 6 8 8 7 8 8 5 7 9 11 12 15 17 10 13 11 -6 -6 -3 -11 -7 -15 -18 1 4 1 -1 -0 15 9 7 25 11 2 15 3 -2 6
13 10 7 5 2 10 15 8 8 11 13 15 20 33 36 37 38 29 38 54 44 31 22 14 13 10 7 5 1 2 3 4 8 9 10 13 12 11 7 6 6 2 1 5 6 3 2 5 8 6 3 6 8 5 4 4 5 6 4 8 12 9 10 12 10 6 1 8 12 6 -6 -27 -19 10 11 4 -6 -10 15 16 6 18 -4 -24 2 10 -1 3
11 6 3 3 7 17 12 5 9 8 12 23 32 40 41 45 48 49 60 53 32 30 21 10 19 15 7 13 15 13 7 2 7 9 10 12 12 12 11 13 14 5 1 10 10 3 4 7 7 7 4 3 5 5 3 0 3 8 4 2 4 -2 2 15 17 11 10 14 16 14 1 -12 -1 16 14 12 5 0 15 22 13 6 -8 -10 11 19 8 5
12 8 8 10 16 18 9 8 11 5 9 21 29 37 49 62 62 55 52 29 9 20 21 16 22 20 13 12 14 20 19 14 16 14 9 10 11 10 8 9 12 10 8 10 10 6 5 2 -0 7 10 6 5 7 7 6 4 8 9 5 2 0 1 6 10 13 14 15 17 14 3 2 9 11 12 11 9 9 10 13 10 1 9 20 16 17 16 7
18 17 16 17 18 13 8 9 8 4 5 10 23 42 61 65 43 26 31 27 18 20 22 20 19 19 20 17 19 27 28 27 27 24 16 9 9 13 12 9 11 11 7 4 5 8 6 2 4 10 11 8 9 10 8 7 7 6 8 6 1 3 5 2 4 10 13 15 17 9 3 11 11 3 9 14 14 19 15 8 5 7 14 5 -4 16 21 2
20 19 13 12 12 6 7 8 6 9 6 8 25 37 47 45 16 3 15 22 24 28 27 20 14 19 20 21 33 34 31 36 31 31 36 21 10 16 16 13 13 12 10 8 5 7 9 5 4 5 7 9 7 9 8 3 5 8 6 6 5 8 13 10 8 13 15 18 21 12 2 9 19 16 15 15 14 18 19 16 16 15 3 -11 0 24 22 6
15 12 5 7 9 4 7 8 8 14 8 9 20 17 29 43 28 19 20 8 9 27 32 14 2 9 8 11 25 21 18 25 10 12 42 41 17 15 21 19 17 13 10 9 6 8 11 10 11 4 -1 8 9 8 14 5 -2 4 5 9 11 9 12 9 2 7 15 14 16 22 19 14 18 23 22 21 24 23 18 16 25 21 -4 -8 17 25 19 22
8 5 3 11 14 8 8 11 14 14 5 10 18 8 16 33 31 31 35 22 12 18 27 18 2 -1 4 14 20 11 11 17 -0 -10 18 43 35 24 28 29 29 31 21 10 8 9 1 4 31 32 5 2 8 6 12 9 0 2 7 13 17 9 5 4 -6 -8 4 10 5 6 15 14 9 13 21 23 23 23 18 14 21 21 3 2 21 19 10 12
2 5 11 15 15 10 10 14 15 7 2 14 20 7 5 22 34 30 23 25 26 25 31 31 13 -9 -4 22 24 8 9 15 9 -9 -14 12 28 19 20 19 20 32 32 17 12 12 -1 -17 4 39 35 16 14 11 9 11 7 2 3 8 15 14 7 8 9 -4 -9 4 12 10 8 6 3 2 6 14 17 14 12 14 16 18 11 -1 -3 1 5 7
7 11 14 13 12 13 14 15 12 6 8 18 19 8 1 15 39 38 23 20 22 29 38 42 33 -1 -12 22 30 11 9 8 9 9 -8 -5 12 14 18 17 9 16 20 12 5 2 8 -4 -20 6 38 31 22 19 5 5 11 0 -6 -2 4 11 9 8 15 12 -3 -10 1 21 24 15 16 14 4 10 21 13 5 12 16 13 8 -4 -10 2 11 13
14 10 8 12 16 16 13 12 11 8 11 13 13 14 9 9 26 33 32 28 18 20 29 36 46 27 -2 11 22 12 15 8 3 16 6 -8 11 28 28 21 15 21 19 18 20 -2 -11 14 8 -7 14 25 25 27 5 -5 11 10 1 0 -1 1 6 5 6 14 15 -6 -21 -3 13 12 19 25 20 18 25 22 10 12 18 13 4 -3 0 11 12 14
12 10 8 12 12 12 12 13 12 7 8 12 12 14 13 8 13 18 23 30 23 19 24 27 41 49 27 10 11 16 22 10 2 13 -4 -21 4 25 23 18 14 22 18 12 35 19 -28 -5 26 2 0 16 20 31 24 -2 0 15 15 9 5 -1 -0 6 5 7 15 9 -10 -19 -13 5 10 3 6 6 7 17 12 5 12 16 15 10 7 9 7 13
8 11 10 7 7 12 15 15 13 7 6 14 16 15 14 8 9 14 18 25 25 19 21 22 25 48 56 29 0 6 23 11 -1 6 -8 -9 18 12 -0 14 12 16 22 2 17 34 -8 -17 13 -2 -12 9 14 20 35 23 5 12 18 9 6 4 2 9 10 9 12 13 13 -4 -23 -1 15 1 1 -1 -4 16 19 9 13 16 18 16 6 7 8 9
9 11 8 7 9 13 16 17 16 9 4 13 20 15 12 9 7 10 12 19 32 31 24 20 12 28 65 58 1 -19 12 14 -7 -8 -13 7 48 25 -14 3 8 7 24 7 -1 26 13 -12 2 -5 -27 -7 15 7 15 30 15 6 16 12 7 7 9 15 10 7 13 8 17 16 -14 -9 13 5 2 -3 -5 17 20 10 13 13 17 18 6 4 9 6
13 11 8 10 9 10 22 25 20 14 6 11 22 17 10 9 7 9 8 14 33 41 31 24 15 10 48 76 23 -28 -4 5 -15 -11 -11 7 58 45 -8 -6 3 -0 17 15 0 18 24 -0 0 8 -18 -24 4 5 6 32 22 1 9 16 16 8 3 18 16 4 11 6 9 21 4 -2 9 4 7 14 14 22 21 16 14 5 8 14 2 -4 -2 -2
13 12 11 10 6 15 32 28 17 16 12 11 23 22 11 5 5 6 7 8 24 38 34 29 25 9 27 72 48 -11 -17 -16 -25 -5 -1 3 48 52 11 2 6 -0 6 9 4 12 25 9 -5 8 0 -19 -4 6 8 32 34 17 10 9 18 12 -9 8 21 5 6 9 9 18 12 6 9 1 4 19 17 11 18 29 22 4 6 11 4 3 1 -3
10 11 11 9 11 25 36 27 15 16 16 17 23 22 11 4 6 7 5 5 15 31 34 29 32 22 20 60 66 14 -18 -25 -20 1 1 0 33 40 18 13 13 7 2 2 8 10 15 18 4 1 1 -11 -7 2 3 12 18 24 24 11 17 18 -9 -11 10 10 7 9 13 19 10 7 19 12 1 10 18 17 25 32 14 -6 0 11 11 9 4 -2
10 11 10 15 25 32 31 25 19 16 16 17 18 20 15 5 4 6 5 7 11 22 30 22 24 23 16 48 73 31 -5 -1 0 -6 -10 3 27 26 16 18 16 13 7 -1 9 11 7 18 15 1 -1 -8 -15 -3 11 12 4 9 21 17 18 25 9 -9 -2 11 10 2 10 23 12 -1 11 16 5 7 16 14 13 15 1 -11 -3 8 11 7 -0 3
10 10 11 24 31 25 25 27 20 16 17 14 13 19 18 8 6 4 4 12 11 9 13 11 19 26 15 40 72 35 2 28 28 -11 -23 2 22 18 22 33 25 15 12 4 7 14 10 12 14 3 -2 -5 -12 -9 6 17 15 10 13 16 15 19 22 11 -2 3 14 8 3 14 12 -3 -4 5 4 5 10 4 1 6 2 -3 3 10 17 16 5 6
13 14 14 26 26 16 25 31 21 16 17 12 12 16 14 11 10 3 1 13 15 6 6 8 20 30 16 31 70 44 5 32 44 -3 -28 -7 13 15 26 44 36 15 12 9 5 11 9 3 10 11 1 -4 -7 -8 1 13 15 6 1 7 14 14 22 26 8 -6 5 12 4 5 13 9 1 2 -1 -1 10 11 3 4 5 4 6 6 10 12 3 2
15 20 16 21 22 13 20 31 24 19 17 11 10 13 15 13 8 3 3 10 12 8 6 6 16 31 24 25 56 52 20 32 44 11 -21 -22 -9 4 21 48 51 23 11 16 10 7 8 -1 3 11 5 -1 -11 -21 -6 10 6 0 -2 1 11 13 14 26 25 5 -3 7 12 8 11 15 12 13 8 -2 -2 1 -4 -1 7 9 10 10 8 2 -5 -4
16 21 12 15 20 8 12 32 31 19 17 14 7 7 16 20 9 5 10 12 13 10 5 7 16 27 28 24 33 38 33 39 42 23 -4 -27 -31 -11 9 37 57 35 13 20 17 8 7 2 3 9 5 7 -4 -29 -21 3 6 6 1 -6 8 16 10 16 28 15 -6 -3 11 8 1 6 12 18 22 10 -1 1 2 4 6 3 6 15 18 12 6 1
Height
5879 5878 5878 5877 5876 5875 5875 5874 5873 5873 5873 5872 5872 5872 5871 5871 5871 5871 5871 5870 5870 5870 5870 5869 5869 5869 5869 5868 5868 5868 5868 5869 5869 5869 5869 5870 5872 5872 5873 5874 5874 5875 5875 5876 5877 5879 5880 5881 5881 5882 5883 5883 5884 5885 5886 5887 5887 5888 5889 5891 5892 5891 5892 5893 5893 5893 5894 5895 5896 5897 5896 5896 5896 5896 5895 5894 5893 5893 5893 5894 5895 5895 5896 5897 5899 5899 5899 5899
5877 5877 5876 5875 5874 5874 5873 5872 5871 5871 5871 5870 5870 5869 5869 5869 5870 5870 5870 5869 5868 5868 5868 5868 5868 5868 5868 5868 5867 5867 5868 5868 5868 5868 5868 5869 5870 5870 5872 5873 5873 5874 5874 5875 5876 5877 5879 5879 5880 5881 5882 5883 5883 5884 5885 5886 5887 5888 5889 5890 5892 5891 5892 5893 5893 5892 5892 5893 5895 5896 5897 5896 5896 5896 5896 5895 5894 5893 5893 5893 5894 5895 5896 5897 5898 5899 5899 5899
5876 5875 5874 5873 5873 5872 5871 5870 5870 5869 5869 5868 5868 5867 5867 5867 5867 5868 5868 5868 5867 5866 5867 5867 5867 5867 5867 5867 5867 5866 5867 5867 5867 5867 5867 5867 5868 5869 5870 5871 5872 5873 5873 5874 5875 5875 5877 5878 5878 5880 5881 5882 5883 5884 5884 5885 5886 5887 5888 5890 5891 5891 5893 5894 5893 5892 5891 5892 5894 5896 5896 5896 5896 5896 5896 5895 5894 5894 5894 5893 5893 5895 5896 5897 5897 5898 5899 5899
5874 5873 5872 5872 5871 5870 5869 5869 5868 5867 5867 5866 5866 5865 5865 5865 5865 5866 5866 5866 5865 5865 5865 5865 5866 5865 5865 5865 5865 5866 5865 5866 5866 5866 5866 5866 5867 5868 5869 5870 5871 5872 5872 5873 5873 5874 5876 5877 5878 5879 5880 5881 5882 5883 5883 5885 5886 5887 5887 5889 5890 5891 5893 5894 5894 5894 5893 5892 5894 5895 5896 5896 5896 5896 5895 5894 5894 5894 5893 5893 5893 5895 5896 5896 5897 5898 5898 5899
5872 5871 5870 5869 5869 5868 5867 5867 5866 5865 5865 5864 5864 5863 5863 5863 5863 5863 5864 5863 5863 5863 5863 5863 5864 5864 5864 5864 5864 5864 5865 5865 5864 5865 5865 5865 5866 5866 5867 5869 5870 5871 5871 5872 5872 5873 5874 5876 5877 5878 5879 5880 5881 5882 5883 5884 5885 5886 5887 5888 5889 5890 5892 5893 5894 5895 5895 5893 5894 5894 5895 5896 5895 5896 5895 5894 5894 5894 5893 5894 5894 5894 5895 5896 5896 5897 5897 5898
5869 5869 5868 5867 5867 5866 5865 5865 5864 5864 5863 5863 5862 5862 5861 5861 5861 5861 5861 5861 5861 5861 5861 5861 5862 5862 5862 5862 5862 5862 5863 5864 5863 5864 5864 5864 5864 5865 5866 5867 5868 5869 5870 5871 5871 5872 5873 5874 5875 5877 5878 5880 5881 5882 5883 5883 5884 5886 5886 5887 5888 5889 5890 5891 5893 5895 5895 5895 5893 5893 5895 5895 5895 5896 5896 5894 5894 5894 5893 5893 5894 5894 5895 5895 5896 5897 5897 5897
5867 5866 5866 5865 5864 5864 5863 5863 5862 5862 5861 5861 5860 5860 5859 5859 5859 5859 5859 5859 5858 5859 5859 5859 5860 5860 5860 5861 5861 5860 5861 5862 5862 5862 5863 5863 5863 5863 5864 5865 5866 5867 5869 5869 5870 5871 5872 5873 5874 5876 5877 5878 5880 5881 5882 5882 5883 5885 5886 5886 5887 5888 5889 5890 5892 5893 5894 5894 5893 5893 5894 5895 5895 5895 5895 5894 5894 5894 5892 5892 5893 5894 5895 5896 5896 5896 5897 5897
5865 5864 5864 5863 5862 5861 5861 5861 5860 5860 5859 5859 5858 5858 5857 5857 5857 5856 5856 5856 5856 5856 5856 5856 5857 5858 5858 5858 5859 5859 5859 5861 5860 5860 5861 5862 5862 5862 5862 5863 5864 5866 5867 5868 5868 5869 5870 5871 5873 5874 5875 5877 5878 5879 5880 5881 5882 5884 5885 5886 5886 5887 5887 5889 5890 5891 5893 5894 5894 5893 5893 5894 5895 5895 5894 5894 5894 5893 5892 5892 5893 5894 5894 5896 5896 5896 5896 5896
5862 5861 5861 5860 5859 5859 5858 5858 5858 5857 5857 5857 5856 5855 5855 5855 5854 5854 5854 5854 5853 5853 5853 5854 5855 5855 5856 5856 5857 5857 5857 5859 5858 5858 5859 5860 5860 5861 5861 5862 5863 5864 5864 5865 5866 5867 5869 5870 5871 5872 5873 5875 5876 5877 5878 5879 5881 5883 5884 5885 5885 5886 5886 5886 5888 5890 5892 5893 5893 5893 5894 5894 5894 5894 5894 5894 5893 5893 5892 5891 5892 5893 5893 5894 5895 5895 5896 5896
5859 5858 5858 5857 5856 5856 5855 5855 5854 5854 5854 5854 5853 5853 5852 5852 5852 5852 5852 5852 5851 5851 5851 5851 5852 5852 5853 5854 5855 5855 5855 5857 5856 5856 5857 5858 5858 5859 5860 5860 5861 5862 5863 5864 5865 5866 5867 5868 5869 5870 5871 5872 5873 5875 5876 5878 5880 5882 5883 5883 5884 5885 5885 5885 5887 5888 5890 5891 5892 5893 5893 5893 5893 5894 5894 5893 5893 5892 5891 5891 5891 5892 5893 5894 5895 5895 5896 5896
5855 5854 5854 5853 5853 5852 5851 5851 5851 5851 5851 5851 5850 5850 5849 5849 5849 5849 5849 5849 5849 5848 5848 5849 5849 5850 5850 5851 5853 5852 5851 5854 5855 5855 5855 5856 5856 5857 5858 5859 5859 5860 5861 5862 5863 5864 5865 5866 5867 5867 5869 5871 5872 5873 5874 5876 5879 5879 5880 5881 5882 5884 5884 5885 5886 5887 5888 5890 5891 5892 5892 5893 5893 5894 5893 5892 5892 5892 5891 5891 5890 5891 5892 5893 5894 5895 5895 5895
5850 5850 5849 5849 5848 5848 5847 5847 5847 5847 5847 5847 5847 5846 5846 5846 5846 5846 5846 5846 5846 5846 5846 5846 5846 5847 5847 5850 5849 5847 5849 5852 5853 5853 5853 5854 5854 5855 5856 5857 5858 5858 5859 5860 5861 5862 5863 5864 5865 5866 5868 5869 5870 5872 5873 5874 5876 5877 5878 5879 5881 5882 5883 5884 5885 5886 5887 5889 5890 5890 5891 5892 5892 5893 5893 5891 5892 5892 5891 5891 5890 5890 5891 5892 5893 5894 5894 5894
5846 5845 5845 5844 5844 5844 5843 5843 5842 5842 5842 5843 5843 5843 5843 5842 5842 5842 5842 5843 5843 5843 5843 5843 5844 5844 5845 5848 5844 5843 5848 5850 5849 5851 5851 5852 5852 5853 5854 5855 5856 5856 5857 5858 5858 5859 5860 5862 5863 5864 5866 5867 5868 5869 5870 5872 5874 5874 5876 5878 5879 5880 5882 5884 5884 5885 5886 5887 5889 5889 5890 5891 5892 5893 5892 5891 5890 5891 5890 5890 5890 5890 5890 5891 5893 5893 5893 5894
5842 5841 5840 5840 5840 5839 5839 5838 5838 5838 5838 5838 5839 5839 5839 5838 5839 5839 5839 5839 5840 5840 5840 5840 5841 5841 5843 5845 5840 5841 5846 5846 5847 5848 5848 5849 5849 5850 5852 5852 5854 5854 5855 5856 5856 5857 5858 5859 5861 5862 5864 5865 5866 5867 5868 5870 5872 5873 5874 5876 5877 5879 5881 5883 5883 5883 5885 5886 5888 5888 5889 5890 5891 5892 5892 5890 5890 5890 5890 5890 5890 5890 5890 5891 5892 5893 5893 5893
5837 5837 5836 5835 5835 5835 5834 5834 5833 5833 5833 5833 5833 5834 5834 5834 5834 5835 5835 5835 5836 5836 5836 5837 5838 5838 5841 5841 5838 5839 5842 5843 5845 5844 5844 5846 5847 5848 5849 5850 5851 5852 5853 5853 5854 5855 5856 5857 5858 5860 5862 5863 5864 5865 5866 5868 5870 5871 5872 5873 5875 5878 5880 5881 5881 5882 5884 5885 5886 5887 5888 5889 5890 5891 5890 5889 5889 5889 5889 5888 5889 5889 5889 5890 5892 5893 5893 5893
5833 5832 5831 5831 5830 5830 5829 5829 5829 5828 5828 5827 5828 5829 5829 5829 5829 5830 5830 5831 5831 5832 5832 5833 5834 5834 5837 5838 5837 5836 5837 5839 5841 5840 5841 5844 5845 5846 5846 5847 5848 5849 5850 5851 5852 5853 5854 5855 5856 5858 5859 5860 5862 5863 5864 5866 5868 5869 5870 5872 5874 5877 5879 5880 5881 5882 5882 5883 5884 5886 5887 5888 5889 5889 5889 5888 5888 5889 5888 5887 5889 5889 5889 5890 5892 5892 5892 5893
5829 5828 5827 5826 5826 5825 5824 5824 5824 5823 5823 5822 5822 5823 5824 5823 5823 5825 5826 5826 5826 5827 5828 5829 5829 5831 5833 5835 5834 5832 5833 5837 5837 5837 5839 5840 5841 5842 5843 5845 5846 5847 5848 5848 5849 5851 5851 5852 5853 5855 5856 5857 5859 5861 5861 5864 5866 5868 5869 5871 5873 5875 5877 5878 5880 5882 5882 5881 5883 5885 5886 5886 5887 5887 5887 5887 5887 5888 5888 5886 5888 5890 5889 5889 5891 5891 5891 5892
5824 5824 5823 5821 5820 5820 5819 5819 5818 5818 5818 5818 5817 5817 5818 5818 5817 5819 5821 5820 5821 5822 5823 5824 5825 5827 5828 5830 5831 5830 5830 5833 5834 5835 5836 5837 5838 5839 5840 5842 5843 5844 5844 5845 5847 5848 5849 5850 5850 5851 5853 5855 5857 5857 5859 5864 5866 5867 5868 5870 5872 5873 5875 5877 5880 5882 5881 5880 5881 5883 5883 5885 5886 5885 5886 5886 5886 5887 5887 5885 5887 5890 5890 5889 5890 5891 5890 5891
5820 5819 5818 5816 5816 5815 5814 5813 5813 5812 5813 5813 5812 5811 5812 5813 5812 5812 5815 5815 5815 5816 5817 5818 5821 5823 5823 5826 5828 5826 5827 5828 5830 5832 5833 5833 5834 5835 5837 5838 5839 5840 5841 5843 5845 5845 5846 5847 5847 5849 5852 5853 5854 5856 5859 5863 5864 5865 5867 5868 5870 5872 5873 5877 5881 5882 5880 5879 5879 5881 5881 5883 5885 5884 5885 5886 5886 5885 5885 5884 5886 5889 5890 5889 5890 5890 5890 5890
5815 5814 5813 5811 5810 5809 5808 5808 5807 5807 5807 5807 5807 5806 5805 5807 5806 5806 5809 5810 5809 5811 5811 5812 5816 5819 5818 5820 5822 5821 5823 5825 5826 5828 5829 5830 5830 5831 5833 5834 5836 5837 5839 5841 5842 5842 5842 5843 5846 5849 5851 5852 5853 5855 5858 5860 5861 5863 5865 5866 5868 5870 5872 5876 5880 5880 5879 5878 5878 5879 5881 5882 5883 5883 5883 5884 5885 5883 5883 5883 5885 5889 5890 5890 5890 5889 5890 5891
5810 5808 5807 5805 5804 5804 5802 5801 5801 5801 5800 5800 5801 5800 5799 5800 5800 5800 5802 5804 5805 5805 5806 5806 5809 5813 5814 5814 5816 5817 5819 5821 5821 5823 5825 5826 5826 5827 5829 5831 5832 5834 5837 5839 5838 5838 5838 5841 5846 5848 5848 5849 5850 5852 5854 5856 5858 5860 5861 5864 5867 5869 5871 5874 5878 5879 5877 5877 5878 5878 5879 5880 5881 5882 5882 5882 5882 5882 5882 5881 5883 5888 5890 5889 5889 5889 5890 5892
5804 5802 5800 5799 5798 5797 5796 5794 5794 5793 5794 5794 5793 5793 5793 5793 5793 5793 5795 5799 5801 5798 5800 5802 5802 5807 5810 5808 5809 5812 5814 5816 5817 5818 5821 5822 5822 5823 5826 5828 5829 5832 5834 5834 5833 5834 5836 5842 5845 5845 5844 5845 5846 5848 5850 5852 5855 5857 5858 5861 5864 5868 5870 5872 5876 5879 5877 5877 5878 5876 5877 5879 5880 5880 5880 5880 5880 5882 5883 5882 5881 5885 5888 5888 5888 5889 5891 5891
5797 5795 5794 5792 5790 5790 5790 5787 5786 5786 5787 5787 5785 5786 5786 5786 5786 5787 5787 5791 5796 5794 5793 5797 5797 5799 5803 5802 5802 5805 5809 5812 5812 5812 5815 5817 5819 5820 5822 5824 5826 5828 5829 5829 5830 5832 5836 5842 5842 5840 5841 5842 5843 5846 5847 5849 5850 5853 5855 5858 5861 5866 5869 5871 5874 5878 5877 5876 5877 5876 5876 5878 5879 5879 5879 5879 5880 5881 5882 5882 5880 5881 5885 5887 5886 5888 5889 5889
5789 5788 5786 5784 5782 5782 5782 5780 5778 5778 5778 5778 5778 5778 5778 5779 5778 5779 5781 5782 5789 5793 5789 5789 5791 5793 5796 5796 5795 5797 5802 5806 5806 5806 5808 5812 5816 5817 5817 5820 5822 5823 5825 5826 5828 5830 5835 5838 5836 5836 5838 5839 5841 5843 5844 5845 5847 5849 5852 5854 5858 5862 5865 5870 5874 5877 5876 5874 5874 5875 5876 5876 5876 5877 5878 5879 5881 5880 5880 5882 5880 5877 5881 5885 5886 5887 5888 5888
5780 5779 5777 5775 5773 5772 5772 5771 5769 5768 5769 5769 5769 5770 5770 5771 5770 5771 5774 5774 5780 5788 5785 5783 5784 5787 5789 5787 5787 5792 5795 5799 5802 5800 5802 5808 5812 5813 5813 5815 5818 5819 5820 5822 5824 5827 5832 5833 5832 5832 5834 5836 5838 5840 5842 5843 5845 5847 5849 5852 5856 5859 5862 5866 5870 5874 5875 5872 5871 5872 5874 5874 5873 5874 5877 5878 5880 5880 5878 5880 5879 5877 5878 5882 5885 5886 5886 5886
5770 5768 5767 5766 5763 5762 5761 5760 5758 5758 5758 5757 5758 5760 5760 5761 5762 5763 5765 5767 5773 5778 5778 5779 5779 5779 5781 5780 5783 5786 5787 5792 5797 5795 5796 5802 5806 5808 5808 5809 5813 5815 5816 5819 5821 5823 5827 5828 5827 5829 5832 5834 5836 5837 5839 5841 5843 5845 5847 5851 5853 5856 5858 5862 5866 5869 5871 5872 5871 5870 5871 5872 5873 5873 5875 5877 5878 5879 5878 5878 5877 5876 5876 5877 5881 5884 5884 5885
5762 5759 5757 5755 5754 5752 5750 5749 5747 5746 5745 5745 5746 5747 5748 5751 5754 5755 5756 5760 5764 5765 5767 5771 5772 5772 5774 5774 5777 5779 5780 5787 5791 5789 5791 5795 5799 5802 5803 5804 5808 5811 5813 5814 5815 5818 5823 5824 5824 5827 5830 5831 5832 5835 5838 5840 5840 5842 5846 5849 5850 5853 5855 5857 5862 5865 5869 5872 5872 5869 5868 5869 5871 5872 5874 5875 5876 5878 5878 5877 5877 5875 5875 5875 5877 5881 5883 5884
5753 5751 5748 5745 5744 5742 5740 5739 5737 5735 5734 5733 5734 5734 5736 5738 5741 5745 5748 5751 5755 5754 5755 5760 5763 5765 5766 5766 5770 5773 5776 5779 5782 5785 5786 5787 5793 5796 5797 5800 5803 5807 5809 5809 5812 5817 5820 5821 5822 5824 5826 5827 5830 5834 5836 5837 5838 5841 5844 5845 5847 5850 5851 5854 5857 5859 5863 5867 5869 5869 5868 5866 5867 5869 5871 5871 5873 5875 5876 5876 5877 5875 5873 5874 5875 5878 5881 5882
5747 5744 5741 5738 5736 5733 5730 5729 5728 5727 5725 5724 5724 5723 5725 5726 5728 5734 5736 5742 5749 5743 5743 5748 5750 5754 5758 5760 5764 5767 5770 5771 5774 5779 5779 5778 5785 5790 5792 5796 5798 5801 5804 5805 5808 5812 5815 5817 5818 5820 5822 5824 5828 5831 5833 5834 5836 5839 5841 5842 5844 5846 5848 5852 5852 5854 5856 5857 5859 5865 5868 5867 5866 5866 5867 5868 5869 5871 5874 5874 5875 5875 5872 5872 5874 5875 5878 5881
5741 5739 5736 5733 5731 5727 5724 5721 5719 5718 5715 5714 5713 5711 5714 5715 5718 5722 5722 5732 5739 5731 5730 5734 5733 5741 5749 5752 5755 5758 5762 5765 5766 5771 5771 5771 5777 5783 5786 5790 5792 5794 5798 5800 5802 5805 5809 5812 5813 5814 5817 5821 5825 5828 5828 5830 5833 5836 5837 5839 5841 5843 5845 5848 5849 5851 5851 5848 5851 5858 5862 5863 5862 5862 5865 5867 5867 5868 5873 5872 5873 5875 5871 5871 5873 5872 5875 5880
5737 5734 5731 5729 5726 5723 5720 5715 5712 5709 5706 5705 5702 5699 5702 5702 5705 5710 5712 5720 5723 5717 5718 5719 5722 5733 5738 5739 5744 5749 5754 5758 5760 5761 5762 5764 5769 5774 5777 5779 5783 5786 5789 5792 5795 5799 5803 5805 5806 5809 5813 5818 5821 5823 5824 5827 5829 5832 5833 5835 5838 5840 5841 5843 5845 5847 5844 5842 5848 5854 5856 5857 5856 5858 5863 5866 5866 5866 5869 5870 5872 5874 5871 5869 5871 5870 5872 5878
5733 5729 5726 5724 5721 5718 5715 5712 5709 5706 5702 5698 5693 5691 5690 5691 5695 5698 5701 5708 5706 5703 5708 5709 5716 5725 5724 5729 5738 5742 5745 5750 5753 5754 5754 5758 5762 5766 5770 5773 5777 5780 5783 5788 5790 5794 5799 5801 5804 5806 5809 5814 5817 5818 5820 5822 5824 5827 5829 5831 5834 5835 5836 5837 5839 5840 5838 5841 5847 5851 5852 5852 5851 5855 5860 5863 5864 5863 5865 5868 5870 5872 5870 5868 5870 5869 5869 5874
5729 5726 5722 5719 5717 5714 5711 5709 5705 5701 5697 5692 5687 5684 5681 5682 5685 5686 5692 5695 5686 5689 5699 5700 5707 5713 5714 5724 5733 5735 5740 5744 5748 5749 5749 5752 5756 5761 5766 5769 5773 5777 5782 5786 5787 5790 5796 5798 5800 5803 5805 5809 5812 5814 5815 5816 5820 5823 5824 5827 5830 5830 5831 5834 5836 5837 5838 5841 5846 5849 5849 5847 5848 5854 5857 5859 5861 5862 5863 5865 5867 5868 5868 5866 5868 5868 5867 5869
5725 5722 5718 5715 5713 5710 5707 5704 5700 5696 5692 5687 5682 5677 5673 5673 5675 5678 5681 5674 5667 5679 5690 5690 5698 5704 5706 5716 5723 5727 5733 5736 5739 5742 5742 5744 5748 5753 5759 5762 5767 5773 5777 5779 5781 5786 5790 5791 5795 5799 5801 5805 5807 5810 5813 5815 5817 5820 5823 5825 5826 5828 5830 5833 5835 5836 5839 5841 5844 5845 5845 5844 5846 5851 5853 5856 5858 5860 5861 5862 5864 5865 5864 5864 5865 5866 5865 5865
5721 5717 5714 5711 5708 5705 5702 5698 5695 5692 5688 5683 5677 5671 5668 5667 5667 5665 5660 5655 5661 5674 5676 5678 5689 5695 5698 5707 5714 5721 5727 5729 5732 5734 5735 5737 5740 5746 5753 5757 5761 5765 5769 5772 5775 5781 5784 5787 5793 5797 5798 5801 5804 5807 5811 5812 5813 5816 5821 5822 5822 5827 5831 5832 5834 5836 5839 5840 5841 5841 5841 5843 5846 5848 5850 5853 5854 5856 5858 5859 5863 5863 5860 5861 5862 5863 5864 5863
5717 5714 5710 5706 5703 5700 5697 5693 5690 5687 5683 5679 5674 5668 5665 5664 5659 5651 5645 5649 5658 5662 5661 5669 5680 5686 5691 5699 5707 5714 5717 5718 5722 5726 5729 5732 5736 5741 5746 5750 5756 5759 5763 5768 5772 5776 5779 5784 5790 5792 5794 5797 5799 5803 5807 5808 5809 5812 5815 5818 5822 5827 5830 5830 5832 5835 5837 5837 5837 5838 5839 5841 5844 5845 5846 5849 5850 5853 5854 5855 5860 5862 5858 5859 5860 5860 5863 5863
5712 5710 5706 5702 5699 5696 5693 5689 5685 5682 5679 5674 5670 5667 5664 5661 5656 5650 5648 5650 5651 5650 5654 5664 5672 5675 5677 5680 5686 5693 5696 5703 5712 5720 5726 5729 5730 5736 5740 5744 5749 5752 5757 5763 5767 5771 5776 5781 5785 5786 5790 5793 5794 5799 5804 5805 5806 5808 5811 5817 5823 5824 5824 5826 5830 5832 5833 5834 5836 5837 5838 5839 5840 5841 5843 5845 5847 5850 5851 5852 5856 5859 5857 5857 5856 5857 5862 5863
5707 5705 5703 5699 5695 5691 5688 5685 5681 5678 5674 5670 5666 5663 5660 5658 5654 5652 5651 5649 5648 5650 5653 5657 5661 5663 5663 5664 5667 5673 5681 5693 5702 5708 5719 5727 5728 5730 5733 5737 5741 5746 5753 5759 5762 5766 5772 5778 5781 5782 5785 5789 5790 5794 5799 5800 5802 5806 5809 5814 5818 5817 5818 5822 5826 5829 5830 5833 5835 5836 5838 5839 5839 5839 5841 5843 5844 5846 5847 5849 5852 5855 5855 5855 5853 5855 5861 5863
5702 5699 5697 5694 5690 5686 5683 5680 5677 5674 5671 5667 5662 5658 5656 5654 5651 5649 5647 5646 5646 5649 5650 5649 5652 5655 5657 5659 5661 5665 5671 5680 5687 5692 5703 5719 5723 5721 5723 5729 5733 5738 5742 5747 5753 5760 5766 5772 5777 5779 5781 5784 5784 5786 5791 5794 5797 5802 5806 5808 5810 5812 5815 5819 5822 5826 5829 5831 5833 5834 5836 5838 5839 5839 5839 5840 5842 5844 5844 5846 5848 5851 5854 5854 5852 5854 5859 5861
5698 5694 5691 5689 5685 5681 5678 5675 5672 5669 5666 5663 5659 5655 5653 5650 5647 5645 5643 5642 5643 5643 5644 5644 5646 5650 5653 5656 5659 5662 5662 5667 5677 5683 5691 5704 5710 5710 5715 5722 5723 5724 5729 5734 5742 5752 5759 5764 5771 5776 5778 5777 5775 5777 5785 5789 5792 5797 5800 5802 5804 5808 5813 5816 5818 5822 5826 5828 5831 5833 5835 5837 5839 5838 5837 5838 5839 5841 5842 5843 5845 5848 5851 5851 5850 5852 5856 5859
5695 5691 5687 5685 5680 5676 5673 5670 5667 5665 5661 5658 5655 5652 5649 5646 5643 5640 5638 5638 5638 5637 5638 5639 5641 5642 5647 5651 5653 5656 5660 5663 5668 5673 5679 5685 5689 5693 5700 5708 5713 5719 5726 5732 5738 5745 5753 5757 5763 5770 5773 5772 5770 5774 5783 5788 5791 5794 5797 5800 5801 5805 5810 5812 5813 5817 5821 5825 5828 5832 5835 5837 5837 5836 5837 5838 5837 5838 5840 5842 5843 5846 5848 5848 5848 5850 5854 5857
5693 5688 5684 5682 5678 5673 5670 5667 5663 5661 5658 5654 5651 5649 5646 5643 5640 5637 5635 5634 5633 5632 5633 5634 5634 5635 5639 5644 5645 5650 5656 5657 5659 5664 5663 5660 5665 5676 5687 5696 5706 5714 5720 5725 5732 5740 5747 5751 5756 5762 5767 5771 5772 5774 5778 5784 5788 5791 5795 5798 5800 5802 5806 5808 5810 5815 5818 5821 5825 5829 5833 5835 5833 5833 5836 5837 5835 5835 5837 5839 5841 5844 5846 5848 5848 5848 5851 5854
5689 5684 5679 5678 5675 5670 5666 5663 5659 5657 5654 5651 5647 5645 5642 5640 5637 5634 5632 5630 5628 5628 5628 5628 5628 5629 5633 5636 5639 5644 5648 5649 5653 5656 5649 5644 5651 5666 5679 5689 5697 5705 5710 5716 5723 5731 5737 5742 5748 5754 5760 5767 5773 5773 5773 5777 5782 5785 5788 5793 5796 5799 5802 5806 5810 5814 5816 5819 5823 5826 5829 5830 5829 5831 5833 5833 5833 5834 5835 5837 5839 5841 5845 5848 5848 5848 5849 5850
5686 5682 5676 5672 5670 5665 5662 5658 5655 5653 5650 5647 5644 5641 5639 5637 5634 5631 5629 5627 5625 5623 5624 5624 5623 5623 5626 5630 5632 5635 5639 5643 5647 5644 5638 5638 5646 5656 5666 5675 5684 5694 5700 5706 5713 5720 5728 5735 5741 5748 5754 5760 5767 5769 5767 5768 5773 5778 5782 5786 5792 5797 5800 5803 5808 5812 5813 5816 5819 5823 5827 5826 5823 5827 5830 5830 5833 5834 5833 5835 5838 5840 5844 5847 5848 5848 5847 5848
5682 5679 5673 5669 5665 5661 5657 5653 5650 5648 5645 5643 5640 5638 5636 5633 5631 5629 5626 5624 5621 5619 5619 5618 5618 5618 5620 5624 5625 5625 5629 5636 5637 5634 5633 5637 5645 5651 5656 5663 5674 5682 5688 5698 5707 5712 5720 5727 5731 5739 5747 5753 5758 5760 5761 5763 5768 5773 5778 5781 5786 5794 5798 5800 5804 5807 5810 5813 5815 5820 5825 5823 5819 5824 5829 5829 5832 5833 5831 5834 5838 5839 5841 5844 5845 5845 5846 5847
5677 5673 5669 5666 5661 5656 5652 5648 5645 5643 5641 5639 5636 5634 5632 5630 5628 5626 5623 5621 5618 5616 5615 5614 5614 5615 5616 5619 5620 5618 5621 5626 5626 5625 5630 5636 5643 5647 5651 5659 5666 5670 5679 5694 5702 5706 5713 5719 5724 5733 5742 5750 5755 5756 5759 5763 5766 5769 5774 5778 5781 5789 5795 5798 5800 5804 5807 5809 5812 5816 5821 5821 5819 5823 5827 5827 5829 5829 5829 5834 5837 5836 5837 5840 5841 5842 5844 5847
5671 5668 5663 5660 5657 5652 5648 5644 5641 5638 5636 5634 5632 5630 5629 5627 5625 5623 5621 5618 5616 5614 5612 5611 5611 5612 5612 5615 5615 5612 5615 5617 5615 5619 5628 5634 5638 5641 5647 5654 5658 5662 5675 5688 5694 5700 5708 5714 5721 5730 5736 5742 5747 5751 5755 5758 5761 5764 5771 5776 5778 5784 5790 5793 5796 5801 5805 5807 5810 5814 5818 5819 5819 5820 5822 5824 5827 5828 5830 5833 5834 5832 5834 5837 5839 5841 5844 5845
5668 5664 5659 5655 5651 5647 5644 5641 5637 5635 5632 5630 5628 5627 5625 5624 5623 5621 5618 5616 5614 5612 5610 5609 5608 5609 5609 5610 5611 5609 5609 5609 5610 5617 5625 5630 5633 5638 5643 5646 5651 5660 5670 5677 5685 5691 5697 5706 5716 5725 5731 5735 5739 5745 5750 5753 5755 5759 5766 5773 5776 5780 5785 5789 5793 5799 5802 5804 5808 5812 5815 5817 5817 5817 5820 5823 5826 5827 5828 5829 5828 5828 5830 5835 5838 5840 5842 5843
5665 5662 5657 5652 5647 5643 5640 5637 5633 5631 5629 5627 5625 5623 5622 5621 5620 5619 5617 5615 5612 5609 5607 5606 5606 5606 5606 5606 5607 5606 5604 5605 5609 5615 5621 5625 5629 5635 5640 5642 5648 5657 5662 5666 5675 5682 5690 5701 5712 5720 5728 5731 5733 5738 5743 5748 5752 5755 5760 5769 5775 5777 5780 5785 5792 5797 5799 5802 5806 5809 5811 5814 5814 5815 5818 5821 5823 5825 5824 5824 5824 5826 5830 5834 5837 5839 5840 5842
5662 5659 5655 5650 5644 5640 5637 5633 5630 5627 5625 5623 5621 5620 5619 5618 5617 5615 5614 5612 5610 5607 5605 5604 5603 5603 5603 5603 5604 5604 5601 5602 5607 5612 5616 5621 5625 5629 5635 5640 5645 5652 5657 5660 5665 5673 5686 5698 5706 5714 5720 5723 5729 5735 5739 5744 5750 5751 5755 5764 5773 5776 5778 5782 5789 5794 5796 5799 5802 5805 5808 5811 5812 5812 5815 5818 5821 5821 5820 5820 5822 5824 5827 5831 5834 5837 5839 5840
5659 5655 5651 5647 5642 5637 5634 5630 5626 5623 5621 5619 5618 5616 5615 5615 5613 5612 5611 5609 5607 5605 5603 5602 5601 5600 5600 5599 5600 5602 5600 5600 5604 5609 5612 5616 5621 5626 5632 5637 5643 5649 5655 5657 5659 5668 5682 5690 5697 5706 5711 5718 5726 5731 5735 5740 5743 5747 5752 5759 5767 5773 5776 5779 5784 5789 5793 5796 5799 5803 5805 5807 5808 5808 5811 5816 5817 5816 5816 5819 5820 5821 5824 5827 5830 5834 5835 5836
5657 5652 5648 5644 5639 5634 5630 5627 5623 5620 5617 5615 5614 5612 5612 5611 5610 5609 5608 5606 5604 5602 5601 5600 5598 5597 5597 5596 5596 5598 5599 5599 5602 5605 5609 5613 5618 5624 5629 5635 5639 5644 5650 5656 5660 5667 5674 5679 5687 5694 5702 5714 5724 5727 5731 5735 5736 5742 5749 5754 5760 5768 5775 5779 5781 5784 5790 5793 5796 5798 5800 5804 5806 5806 5806 5810 5813 5814 5816 5818 5819 5820 5822 5825 5828 5832 5834 5834